Weather History for LFKF - November, 2012

Change the Weather History Date:

Sunday, November 25, 2012

  Actual Average Record
Temperature  
Mean Temperature 52 °F -  
Max Temperature 68 °F 56 °F - (-1)
Min Temperature 37 °F 45 °F - (-1)
Degree Days  
Heating Degree Days 12    
Growing Degree Days 2 (Base 50)    
Moisture  
Dew Point 45 °F    
Average Humidity 86    
Maximum Humidity 100    
Minimum Humidity 56    
Precipitation  
Precipitation 0.00 in - - ()
Sea Level Pressure  
Sea Level Pressure 30.17 in    
Wind  
Wind Speed 2 mph ()    
Max Wind Speed 7 mph    
Max Gust Speed -    
Visibility 6.1 miles    
Events      
Averages and records for this station are not official NWS values.
T = Trace of Precipitation, MM = Missing Value Source: Averaged Metar Reports

Daily Weather History Graph

Daily Weather History Graph

Search for Another Location

Airport or City:

Trip Planner

Search our weather history database for the weather conditions in past years. The results will help you decide how hot, cold, wet, or windy it might be!

Date:

Astronomy

Nov. 25, 2012 Rise Set
Actual Time 7:24 AM CET 4:56 PM CET
Civil Twilight 6:53 AM CET 5:27 PM CET
Nautical Twilight 6:19 AM CET 6:01 PM CET
Astronomical Twilight 5:46 AM CET 6:34 PM CET
Moon 3:06 PM CET (11/25) 4:21 AM CET (11/25)
Length of Visible Light 10h 33m
Length of Day
9h 32m
Waxing Gibbous, 91% of the Moon is Illuminated
Nov 25
Waxing Gibbous
Nov 28
Full
Dec 6
Last Quarter
Dec 13
New
Dec 20
First Quarter

Hourly Weather History & Observations

Time (CET) Temp. Windchill Dew Point Humidity Pressure Visibility Wind Dir Wind Speed Gust Speed Precip Events Conditions
12:00 AM 42.8 °F 41.1 °F 42.8 °F 100% 30.21 in 6.2 mi NNE 3.5 mph - N/A   Unknown
12:30 AM 42.8 °F 41.1 °F 41.0 °F 93% 30.21 in 5.6 mi NNE 3.5 mph - N/A   Unknown
1:00 AM 41.0 °F 39.0 °F 39.2 °F 93% 30.21 in 6.2 mi NNE 3.5 mph - N/A   Unknown
1:30 AM 41.0 °F - 39.2 °F 93% 30.21 in 5.6 mi NNE 1.2 mph - N/A   Unknown
2:00 AM 41.0 °F - 39.2 °F 93% 30.18 in 5.6 mi Calm Calm - N/A   Unknown
2:30 AM 39.2 °F - 37.4 °F 93% 30.18 in 6.2 mi North 2.3 mph - N/A   Unknown
3:00 AM 39.2 °F - 37.4 °F 93% 30.18 in 6.2 mi NE 2.3 mph - N/A   Unknown
3:30 AM 39.2 °F - 37.4 °F 93% 30.18 in 6.2 mi Calm Calm - N/A   Unknown
4:00 AM 39.2 °F - 37.4 °F 93% 30.18 in 6.2 mi Calm Calm - N/A   Unknown
4:30 AM 39.2 °F - 37.4 °F 93% 30.18 in 6.2 mi Calm Calm - N/A   Unknown
5:00 AM 39.2 °F - 37.4 °F 93% 30.18 in 6.2 mi North 2.3 mph - N/A   Unknown
5:30 AM 37.4 °F - 35.6 °F 93% 30.18 in 6.2 mi Calm Calm - N/A   Unknown
6:00 AM 37.4 °F - 35.6 °F 93% 30.18 in 6.2 mi Calm Calm - N/A   Unknown
6:30 AM 39.2 °F - 37.4 °F 93% 30.18 in 6.2 mi Variable 1.2 mph - N/A   Mostly Cloudy
7:00 AM 42.8 °F - 42.8 °F 100% 30.18 in 6.2 mi Variable 1.2 mph - N/A   Overcast
7:30 AM 44.6 °F - 44.6 °F 100% 30.18 in 6.2 mi NNE 2.3 mph - N/A   Overcast
8:00 AM 44.6 °F - 42.8 °F 93% 30.18 in 6.2 mi NNE 1.2 mph - N/A   Partly Cloudy
8:30 AM 48.2 °F - 48.2 °F 100% 30.18 in 6.2 mi Calm Calm - N/A   Unknown
9:00 AM 51.8 °F - 51.8 °F 100% 30.21 in 6.2 mi Calm Calm - N/A   Unknown
9:30 AM 57.2 °F - 55.4 °F 94% 30.21 in 6.2 mi Calm Calm - N/A   Unknown
10:00 AM 59.0 °F - 55.4 °F 88% 30.21 in 6.2 mi Calm Calm - N/A   Scattered Clouds
10:30 AM 60.8 °F - 57.2 °F 88% 30.21 in 6.2 mi Calm Calm - N/A   Partly Cloudy
11:00 AM 64.4 °F - 57.2 °F 77% 30.18 in 6.2 mi Variable 1.2 mph - N/A   Partly Cloudy
11:30 AM 64.4 °F - 57.2 °F 77% 30.18 in 6.2 mi SSW 4.6 mph - N/A   Unknown
12:00 PM 66.2 °F - 57.2 °F 73% 30.18 in 5.6 mi SSW 5.8 mph - N/A   Unknown
12:30 PM 66.2 °F - 57.2 °F 73% 30.18 in 6.2 mi SSW 4.6 mph - N/A   Unknown
1:00 PM 66.2 °F - 55.4 °F 68% 30.15 in 6.2 mi SW 3.5 mph - N/A   Unknown
1:30 PM 68.0 °F - 53.6 °F 60% 30.15 in 6.2 mi SW 5.8 mph - N/A   Unknown
2:00 PM 66.2 °F - 53.6 °F 64% 30.15 in 6.2 mi SSW 6.9 mph - N/A   Unknown
2:30 PM 66.2 °F - 53.6 °F 64% 30.12 in 6.2 mi SSW 5.8 mph - N/A   Unknown
3:00 PM 66.2 °F - 51.8 °F 60% 30.12 in 6.2 mi SW 5.8 mph - N/A   Unknown
3:30 PM 66.2 °F - 50.0 °F 56% 30.12 in 6.2 mi SW 5.8 mph - N/A   Unknown
4:00 PM 64.4 °F - 51.8 °F 64% 30.12 in 6.2 mi SSW 3.5 mph - N/A   Unknown
4:30 PM 62.6 °F - 50.0 °F 63% 30.12 in 6.2 mi SSW 3.5 mph - N/A   Unknown
5:00 PM 57.2 °F - 50.0 °F 77% 30.12 in 6.2 mi South 2.3 mph - N/A   Unknown
5:30 PM 51.8 °F - 46.4 °F 82% 30.15 in 6.2 mi Calm Calm - N/A   Unknown
6:00 PM 48.2 °F - 44.6 °F 87% 30.15 in 6.2 mi Calm Calm - N/A   Unknown
6:30 PM 46.4 °F - 42.8 °F 87% 30.15 in 6.2 mi North 2.3 mph - N/A   Unknown
7:00 PM 44.6 °F - 41.0 °F 87% 30.15 in 6.2 mi NE 2.3 mph - N/A   Unknown
7:30 PM 42.8 °F - 41.0 °F 93% 30.15 in 6.2 mi NE 2.3 mph - N/A   Unknown
8:00 PM 42.8 °F - 41.0 °F 93% 30.15 in 6.2 mi NNE 2.3 mph - N/A   Unknown
8:30 PM 41.0 °F - 39.2 °F 93% 30.15 in 5.0 mi Calm Calm - N/A   Unknown
9:00 PM 41.0 °F 39.0 °F 39.2 °F 93% 30.15 in 6.2 mi NNE 3.5 mph - N/A   Unknown
9:30 PM 41.0 °F - 39.2 °F 93% 30.15 in 6.2 mi Calm Calm - N/A   Unknown
10:00 PM 39.2 °F - 37.4 °F 93% 30.15 in 6.2 mi Calm Calm - N/A   Unknown
10:30 PM 39.2 °F - 37.4 °F 93% 30.15 in 6.2 mi NNE 2.3 mph - N/A   Unknown
11:00 PM 39.2 °F - 37.4 °F 93% 30.15 in 6.2 mi NNE 1.2 mph - N/A   Unknown
11:30 PM 39.2 °F - 37.4 °F 93% 30.15 in 6.2 mi Variable 2.3 mph - N/A   Unknown